Retour au catalogue

NOAA 16 DEB

ActifSSO
NORAD 41417·DEBRIS·🇺🇸 United States

Lancé Sep 21, 2000 depuis Vandenberg Space Force Base

Loading…

Prochains Passages (prochaines 24 heures)

TLE

FraisSource: Space-Track

Époque: Sep 14, 2026, 12:08 UTC

1 41417U 00055KW  26257.50591202  .00002870  00000-0  10649-2 0  9992
2 41417  98.7295 350.8657 0018421  76.9070 283.4168 14.32889616546081

Suivez NOAA 16 DEB en temps réel avec AllMySat

Download on the App Store